Starlink 30841

operational
NORAD ID: 58208 Int'l Des: 2023-170 Owner: SPXS Country: US Constellation: starlink
LEOCIRCULAR

Starlink 30841について

説明を読み込み中...

リアルタイム位置

3D地球を読み込み中...

次回通過

高度履歴

Altitude vs Time

uPlot chart will show altitude changes over time

軌道要素

1 58208U 23170C 25303.98187649 .00000195 00000-0 29513-4 0 9990
2 58208 43.0030 181.0790 0001264 265.3745 94.6953 15.02535906110763
Epoch: Oct 30, 2025 • Age: 13 hours

現在のステータス

高度 559.1 km
速度 7.58 km/s
衛星直下点 -2.00°S, 48.74°W
打ち上げ日 Nov 4, 2023
運用期間 1.9 years
タイプ internet

技術仕様

分類 Payload
質量 730.00 kg
乾燥質量 700.00 kg
総質量 730.00 kg
長さ 0.30 m
直径 4.10 m
スパン 29.00 m
形状 Box + pan
製造者 SPXS
バスタイプ Starlink V2M
フェーズステータス In Orbit
所有者/国 SPXS/US

大規模コンステレーション

Loading constellations...